Wetbulb
59.14 59.20 59.28 58.97 58.60 58.31 58.19 58.05 57.70 57.66 57.59 58.01 57.89 58.25 58.13 58.55 57.89 54.41 48.54 54.07 56.32 63.39 63.77 53.92 52.22 49.78 46.41 43.87 46.52 46.26 39.10 37.45 40.33 42.67 44.06 58.18 57.99 62.29 64.42 62.68 64.14 63.88 63.27 66.16 67.36
58.74 58.80 58.66 58.70 58.61 58.47 57.86 57.61 57.53 57.36 57.32 57.48 57.86 57.73 58.14 58.57 53.62 50.39 58.36 63.89 65.15 67.92 52.66 49.05 47.01 46.40 42.43 41.09 42.86 42.45 36.81 39.98 44.03 44.71 45.91 54.20 59.20 61.74 61.51 61.89 59.39 59.42 62.58 67.30 66.59
58.36 58.45 58.52 58.52 58.33 58.43 57.91 57.42 56.98 57.10 57.37 57.21 57.31 57.52 58.12 57.95 49.00 53.99 66.75 66.72 67.65 65.60 50.45 48.97 46.64 44.88 40.30 40.09 41.45 40.36 38.76 42.49 45.19 45.43 46.95 48.93 60.36 63.15 60.54 57.50 59.82 59.01 61.76 64.52 65.00
58.18 58.05 58.03 58.03 57.90 58.09 57.64 57.34 57.09 56.92 56.84 56.61 56.73 57.72 58.61 55.24 39.08 53.99 67.13 68.33 67.90 56.88 49.77 46.30 43.80 41.25 38.61 39.04 42.43 39.81 43.31 43.02 44.63 46.31 45.03 45.00 59.86 62.04 61.83 62.00 61.55 62.19 64.50 64.86 62.56
57.98 57.89 57.82 57.77 57.66 57.95 57.73 57.39 57.18 56.68 56.07 56.44 57.21 58.17 54.90 49.72 52.02 59.22 67.99 66.35 57.71 53.31 48.54 45.18 41.99 41.56 41.40 40.54 40.98 40.60 43.12 44.77 46.26 44.75 43.93 47.63 54.92 59.42 62.04 64.79 65.40 65.57 64.67 63.79 62.81
57.76 57.77 57.85 57.61 57.63 57.77 57.52 57.12 56.67 56.14 55.86 56.50 57.79 58.50 54.68 47.77 56.44 61.11 60.89 60.15 56.04 52.07 49.79 46.69 44.49 44.79 43.25 42.17 39.53 43.60 43.20 44.27 44.49 43.97 43.60 49.50 59.55 60.64 60.62 63.86 62.89 63.84 63.21 64.07 63.55
57.42 57.50 57.64 57.60 57.70 57.66 57.34 56.97 56.47 56.12 56.05 57.03 58.09 57.38 52.60 49.31 56.31 58.15 58.59 60.75 58.44 55.98 50.63 51.07 50.22 47.52 46.38 44.22 44.79 43.98 41.72 43.39 43.79 43.55 43.36 46.19 54.05 56.90 61.52 59.98 59.29 59.27 60.13 63.67 64.20
57.06 57.05 57.22 57.48 57.42 57.54 57.44 57.10 56.74 56.83 56.53 57.26 58.06 55.08 47.81 57.44 58.23 57.25 57.23 57.02 56.72 57.81 52.58 52.08 51.17 46.77 43.75 45.32 45.01 41.88 39.54 37.14 42.21 44.71 46.09 45.04 39.02 57.75 61.12 59.70 57.45 59.00 60.82 63.85 64.12
57.02 56.71 56.89 57.18 57.08 57.10 56.74 56.23 56.55 57.09 56.87 57.65 54.15 51.34 49.30 60.96 56.96 58.73 52.26 52.72 51.89 53.88 51.85 54.70 47.49 44.09 44.55 39.72 37.83 38.70 35.68 38.23 41.66 45.37 44.32 44.17 41.04 57.87 60.35 59.59 59.14 61.11 63.55 64.01 63.93
56.78 56.41 56.45 56.57 56.72 56.53 55.53 55.75 55.26 55.02 56.50 57.88 56.43 49.56 53.24 54.93 57.01 56.03 52.68 52.84 51.72 52.14 51.21 49.05 43.40 39.93 38.31 36.48 32.50 35.81 36.50 37.18 39.46 44.20 44.27 41.87 43.07 57.26 59.70 58.96 58.88 60.37 62.26 63.81 63.28
56.70 56.37 56.07 56.07 56.23 55.32 52.28 49.16 50.31 50.15 51.39 52.63 53.95 53.61 56.86 58.42 57.40 54.48 55.55 52.30 52.03 49.01 44.33 46.62 41.09 38.84 40.27 40.14 41.09 40.39 39.35 38.97 43.03 46.05 43.42 42.63 42.48 49.86 57.53 57.17 57.01 57.21 58.17 62.12 60.07
56.42 56.31 56.15 55.79 55.46 54.80 50.43 47.69 53.62 52.17 47.28 55.02 56.45 56.27 59.30 59.38 52.93 54.64 54.69 49.17 47.95 44.06 45.98 43.94 40.73 46.11 45.70 44.17 41.90 41.20 39.19 39.02 41.70 45.37 43.21 43.27 42.45 44.13 58.45 56.57 57.90 57.81 59.33 61.07 60.60
55.61 55.47 55.45 55.28 54.72 49.77 47.89 53.63 58.16 54.21 46.89 52.56 55.53 55.35 55.94 55.33 52.33 52.93 52.80 49.66 47.16 44.18 44.00 41.78 45.62 50.50 48.76 47.64 46.91 43.62 41.87 43.83 40.80 44.35 43.20 41.71 40.36 42.09 52.95 58.22 62.49 60.47 61.36 61.60 60.50
55.14 54.98 54.84 54.57 52.25 51.20 50.88 56.22 54.95 53.86 44.25 50.13 52.74 54.15 53.01 52.70 51.89 56.15 54.89 51.55 47.71 45.41 45.55 44.74 51.02 49.46 44.23 43.14 47.43 41.31 49.30 48.48 47.72 40.40 35.62 41.20 33.38 40.92 48.18 48.83 51.08 52.62 55.95 60.81 61.36
54.66 54.88 54.35 52.66 47.61 46.68 54.41 52.47 53.73 54.84 38.27 53.98 52.42 57.71 54.68 51.95 53.44 53.00 55.82 54.32 49.26 50.61 48.98 45.73 46.80 42.37 41.07 41.98 45.95 44.96 49.59 47.36 46.98 40.26 37.45 40.86 34.49 40.15 46.95 45.63 47.24 50.10 52.58 54.32 58.93
54.39 54.76 54.35 52.17 49.39 51.11 54.38 55.64 54.41 45.61 39.17 49.11 50.55 49.75 49.52 51.60 51.93 51.01 51.27 54.04 53.26 49.71 48.10 46.64 47.66 44.50 42.17 44.76 44.65 45.53 46.18 44.59 42.58 37.34 32.55 38.52 37.95 37.42 42.45 44.50 46.54 49.36 50.88 53.23 54.64
54.23 54.42 53.10 54.25 50.46 53.94 57.27 53.95 45.17 40.19 49.32 44.69 46.26 47.88 46.81 45.72 45.90 47.76 44.93 43.11 40.45 39.22 38.25 42.75 43.31 44.24 45.06 41.23 44.01 42.35 39.46 33.30 33.17 34.58 32.05 40.39 38.93 40.32 45.72 47.44 47.79 47.96 49.91 54.43 56.98
52.93 52.49 50.93 54.05 51.33 55.00 54.91 49.47 39.24 45.05 42.88 46.79 46.29 47.37 43.42 44.68 44.28 46.50 44.03 39.49 42.73 41.22 36.85 34.49 33.62 41.04 43.98 40.01 37.12 37.29 38.79 34.06 28.53 31.32 31.76 40.98 35.82 41.27 48.16 48.51 49.19 49.82 50.81 54.28 54.92
50.82 49.30 50.42 55.85 54.23 54.79 50.89 41.35 38.80 43.47 44.74 44.44 45.59 42.30 41.68 43.95 42.41 41.82 41.52 40.12 41.45 40.23 34.19 33.26 34.91 43.28 42.98 43.14 40.10 37.40 33.35 39.23 34.17 35.42 32.78 34.93 41.03 46.75 46.55 45.71 46.64 48.03 49.35 51.13 53.62
50.22 52.85 53.71 57.33 58.40 53.30 46.56 43.22 43.06 47.88 47.77 46.36 39.78 42.20 37.74 39.58 39.55 38.38 39.65 42.74 42.22 43.17 40.53 38.28 31.81 41.89 43.00 43.60 43.64 39.47 42.27 32.77 31.82 26.68 26.07 33.80 38.67 37.96 41.43 42.27 44.65 46.96 48.73 50.68 51.80
52.70 51.75 57.25 52.94 55.28 49.57 42.37 41.74 44.52 48.12 48.42 44.77 42.41 40.28 40.63 39.41 39.72 38.40 39.51 41.65 43.85 43.17 42.98 37.53 34.22 35.10 40.08 37.57 36.32 38.07 35.84 35.97 32.93 34.27 29.32 28.47 32.89 43.81 42.36 43.50 44.29 47.09 49.93 52.00 50.57
52.07 47.87 58.76 53.79 46.41 43.57 39.97 46.14 47.18 46.82 47.30 46.62 45.04 43.69 41.44 41.56 40.24 40.56 40.68 42.60 45.63 44.69 39.66 39.84 33.45 30.16 35.98 41.78 44.63 41.78 37.45 35.97 30.38 29.52 31.44 32.71 33.60 43.69 43.08 42.76 45.57 48.30 50.07 50.69 48.04
46.68 50.50 56.91 51.73 40.92 41.18 43.58 45.63 46.30 46.22 45.22 45.56 45.12 45.41 44.71 40.81 36.49 41.62 43.31 45.85 46.64 44.43 39.99 39.27 32.84 29.35 31.81 36.09 40.69 38.40 39.89 38.62 36.94 34.31 30.83 28.14 30.87 42.99 43.41 42.21 44.74 47.70 49.66 49.35 47.92
49.36 46.81 46.22 46.39 44.50 42.39 41.91 42.81 42.68 47.18 47.03 46.79 45.15 46.22 42.19 39.94 41.01 39.78 41.79 46.13 46.84 46.05 50.97 45.36 36.09 34.31 28.95 33.28 36.97 35.21 37.12 37.73 35.18 29.43 32.11 34.83 36.03 38.34 39.79 39.65 41.84 46.97 47.54 47.70 46.97
49.95 44.88 43.11 40.52 42.07 41.48 40.89 43.74 43.44 43.16 46.15 46.04 43.59 44.37 40.65 35.22 38.07 38.94 41.29 42.03 45.53 50.53 44.97 41.15 34.52 36.00 37.54 39.66 40.03 37.61 36.75 36.79 34.64 35.12 30.93 34.36 35.56 36.72 38.31 39.13 41.11 45.17 47.84 46.73 45.81
43.90 43.70 44.88 42.69 43.97 42.71 40.70 41.03 42.97 44.09 42.80 43.98 41.48 43.87 40.95 36.72 39.46 36.55 38.81 37.07 38.06 41.64 40.55 39.52 32.86 35.50 34.78 39.97 39.25 36.47 37.80 36.74 36.08 36.59 35.33 35.26 35.21 39.96 41.23 41.52 41.94 43.13 47.15 46.54 45.42
48.41 48.31 46.00 43.16 42.65 41.97 41.36 44.14 44.59 43.68 44.50 45.64 44.20 41.32 40.51 42.98 43.64 42.71 41.42 40.22 40.44 38.81 39.14 38.09 35.27 32.06 29.74 37.55 36.65 31.68 34.66 35.82 35.57 36.60 35.75 30.84 34.74 39.64 38.73 40.92 39.65 40.96 43.33 45.41 46.63
MSLP
1018.24 1017.89 1017.59 1017.13 1016.90 1016.59 1016.54 1016.39 1016.15 1015.79 1015.40 1014.99 1014.73 1014.45 1014.12 1013.71 1012.91 1012.65 1011.48 1008.16 1008.30 1007.94 1008.57 1008.57 1008.71 1008.82 1009.05 1009.25 1009.18 1009.51 1010.56 1010.53 1009.43 1008.65 1008.27 1008.79 1009.12 1009.09 1009.52 1009.50 1010.79 1012.53 1013.53 1012.31 1010.82
1017.96 1017.57 1017.32 1016.89 1016.63 1016.44 1016.46 1016.26 1016.03 1015.66 1015.34 1014.89 1014.50 1014.28 1013.92 1013.51 1013.00 1011.35 1007.37 1007.30 1007.48 1007.75 1008.47 1008.47 1008.46 1008.66 1009.11 1009.10 1008.90 1009.37 1009.87 1009.59 1008.34 1007.87 1007.57 1008.24 1008.41 1008.69 1009.49 1010.28 1012.47 1014.13 1013.03 1011.30 1011.32
1017.54 1017.20 1016.86 1016.82 1016.35 1016.38 1016.21 1016.04 1015.83 1015.54 1015.14 1014.76 1014.33 1014.08 1013.77 1013.51 1012.61 1008.49 1006.49 1006.59 1007.19 1007.63 1007.97 1008.05 1008.30 1008.52 1008.99 1008.95 1008.75 1008.56 1008.63 1008.24 1007.16 1006.85 1006.96 1007.33 1008.13 1008.85 1009.40 1010.49 1011.87 1013.82 1010.89 1012.46 1012.37
1017.17 1016.90 1016.62 1016.57 1016.18 1016.14 1015.88 1015.79 1015.61 1015.33 1014.91 1014.61 1014.12 1013.85 1013.52 1013.53 1011.07 1006.97 1006.46 1006.46 1007.05 1007.45 1007.93 1007.92 1008.08 1008.40 1008.75 1008.82 1008.10 1008.52 1007.60 1007.21 1006.32 1005.92 1006.14 1006.52 1007.34 1008.71 1009.00 1009.33 1010.64 1012.02 1012.22 1010.71 1011.41
1016.92 1016.68 1016.47 1016.26 1016.02 1015.88 1015.62 1015.53 1015.28 1015.03 1014.57 1014.41 1013.93 1013.69 1013.27 1012.63 1009.65 1006.52 1006.69 1006.91 1007.13 1007.44 1007.59 1007.79 1007.89 1008.06 1008.23 1007.84 1007.76 1007.75 1007.10 1006.30 1005.61 1005.55 1005.75 1006.10 1007.05 1008.38 1009.60 1009.66 1010.04 1010.00 1010.63 1009.83 1010.26
1016.66 1016.31 1016.26 1015.90 1015.72 1015.51 1015.29 1015.13 1014.94 1014.65 1014.28 1014.16 1013.74 1013.77 1013.43 1011.46 1006.83 1006.20 1006.66 1007.19 1007.04 1007.23 1007.22 1007.43 1007.32 1007.58 1007.58 1007.52 1007.61 1006.66 1006.42 1005.76 1005.05 1004.92 1005.03 1005.84 1007.84 1007.74 1010.72 1010.18 1009.51 1008.50 1007.21 1006.69 1007.82
1016.40 1016.18 1015.83 1015.60 1015.32 1015.12 1014.94 1014.70 1014.60 1014.19 1014.00 1013.80 1013.73 1013.62 1012.79 1009.10 1006.59 1006.59 1006.80 1006.59 1006.25 1006.64 1006.75 1006.57 1006.65 1007.45 1007.23 1007.03 1006.35 1006.38 1006.04 1005.25 1004.52 1004.14 1004.33 1004.76 1007.48 1008.18 1008.62 1009.82 1009.45 1008.23 1007.07 1007.52 1007.60
1016.06 1015.69 1015.43 1015.25 1015.06 1014.84 1014.44 1014.28 1014.03 1013.60 1013.52 1013.51 1013.68 1013.39 1011.22 1006.86 1006.53 1006.70 1006.29 1006.08 1005.92 1005.93 1006.00 1005.67 1006.12 1006.77 1006.93 1006.71 1006.40 1006.55 1006.41 1006.04 1004.49 1004.18 1003.57 1004.45 1005.81 1006.80 1007.81 1008.78 1008.76 1008.16 1007.78 1007.41 1006.98
1015.61 1015.34 1015.26 1015.03 1014.72 1014.46 1014.15 1013.70 1013.24 1012.94 1013.21 1013.53 1013.64 1012.87 1009.63 1006.40 1005.99 1004.84 1005.15 1005.40 1005.30 1005.51 1005.53 1005.24 1005.75 1006.64 1006.78 1007.31 1007.65 1007.30 1007.09 1006.47 1004.90 1003.97 1003.78 1004.18 1005.13 1006.52 1007.33 1007.60 1007.57 1007.50 1007.31 1006.73 1006.70
1015.27 1015.10 1014.88 1014.72 1014.63 1014.26 1013.43 1012.55 1012.59 1012.72 1013.00 1013.09 1012.60 1012.28 1008.45 1006.07 1004.86 1004.43 1004.32 1004.71 1005.21 1005.31 1005.78 1005.90 1006.62 1007.31 1007.88 1008.41 1008.51 1007.62 1007.16 1006.37 1005.56 1003.93 1003.70 1004.11 1004.58 1005.89 1006.86 1007.25 1006.72 1006.75 1006.95 1007.01 1007.11
1014.95 1014.79 1014.64 1014.56 1014.25 1013.71 1012.69 1012.55 1012.75 1012.51 1012.11 1010.62 1009.66 1008.81 1006.69 1005.05 1004.06 1004.16 1004.21 1004.67 1005.03 1005.48 1006.28 1006.66 1007.59 1007.74 1007.45 1007.52 1007.27 1007.31 1007.07 1006.41 1004.87 1003.74 1004.24 1004.00 1004.51 1005.15 1005.87 1006.35 1006.96 1006.82 1006.99 1007.53 1007.45
1014.70 1014.51 1014.31 1013.98 1013.77 1013.71 1013.85 1012.90 1010.89 1010.33 1009.68 1008.28 1007.62 1007.27 1005.76 1005.39 1004.74 1004.03 1004.10 1005.00 1005.31 1006.05 1006.65 1007.47 1007.53 1006.57 1006.33 1006.83 1007.35 1007.31 1006.93 1006.29 1005.10 1003.85 1004.03 1003.87 1004.30 1004.45 1005.96 1006.26 1005.90 1005.90 1006.99 1007.43 1007.77
1014.37 1014.13 1013.91 1013.75 1013.61 1013.86 1013.09 1011.03 1008.81 1009.24 1009.46 1007.06 1005.99 1005.35 1004.51 1004.68 1004.49 1003.98 1004.24 1004.71 1005.40 1006.10 1006.54 1007.43 1007.27 1006.65 1007.05 1007.32 1007.24 1007.00 1007.93 1007.44 1006.17 1004.35 1003.88 1004.33 1005.02 1005.31 1006.57 1007.14 1006.45 1006.82 1005.74 1006.77 1006.92
1014.09 1013.87 1013.70 1013.54 1013.84 1013.03 1011.66 1008.94 1008.66 1009.25 1009.26 1006.91 1005.03 1003.71 1003.73 1003.99 1004.12 1003.58 1004.04 1004.62 1005.37 1006.07 1006.54 1007.44 1007.55 1006.97 1007.17 1007.52 1007.60 1007.35 1007.35 1006.60 1005.84 1005.53 1005.71 1005.67 1007.03 1008.34 1008.80 1008.86 1009.94 1010.54 1010.13 1009.17 1004.39
1013.97 1013.81 1013.76 1013.68 1013.82 1012.53 1009.48 1009.00 1008.88 1008.94 1008.70 1006.33 1004.90 1003.61 1003.66 1004.30 1004.37 1004.41 1004.55 1004.60 1006.06 1006.70 1007.27 1008.55 1007.97 1007.83 1007.91 1008.59 1008.05 1008.18 1007.46 1007.12 1006.96 1006.79 1007.09 1009.08 1009.77 1011.33 1011.15 1010.79 1011.09 1011.31 1011.54 1010.76 1009.06
1013.88 1013.60 1013.58 1013.76 1013.59 1010.41 1009.53 1009.08 1008.87 1009.57 1008.35 1007.11 1005.92 1005.11 1005.21 1005.19 1005.48 1005.64 1006.28 1005.90 1006.79 1007.49 1008.42 1008.96 1008.75 1008.80 1009.18 1008.82 1008.60 1008.25 1008.03 1007.95 1008.09 1008.50 1009.50 1011.31 1011.94 1013.41 1013.20 1013.82 1013.15 1012.59 1011.60 1010.07 1008.94
1013.63 1013.38 1013.43 1012.63 1011.05 1009.52 1009.44 1009.50 1010.06 1009.90 1008.70 1008.37 1007.54 1007.06 1007.18 1007.19 1007.06 1007.39 1008.35 1008.86 1009.59 1009.81 1010.63 1010.20 1010.14 1010.02 1009.72 1009.17 1009.01 1009.12 1009.75 1010.93 1011.12 1011.50 1011.91 1011.87 1012.57 1013.97 1014.48 1014.56 1014.34 1013.82 1012.77 1010.90 1008.57
1013.12 1013.09 1012.12 1011.01 1009.91 1010.14 1010.44 1010.56 1010.70 1010.26 1009.82 1009.21 1008.69 1008.23 1008.56 1008.81 1008.99 1009.17 1009.87 1010.59 1011.03 1011.42 1012.20 1012.35 1011.71 1011.40 1011.44 1011.34 1011.14 1010.99 1011.66 1013.09 1013.97 1014.27 1013.55 1012.70 1013.13 1014.39 1014.55 1014.59 1014.44 1013.49 1013.13 1012.09 1010.37
1012.11 1012.25 1011.82 1008.86 1009.69 1010.36 1011.17 1011.53 1011.12 1010.53 1010.30 1009.97 1009.46 1009.51 1010.04 1009.93 1009.99 1010.38 1011.03 1011.62 1012.22 1012.40 1013.19 1013.66 1013.33 1012.66 1012.27 1012.05 1012.17 1012.12 1012.92 1013.10 1014.43 1014.93 1015.31 1014.07 1013.22 1013.44 1013.91 1013.86 1014.21 1013.46 1013.06 1013.08 1012.49
1012.28 1011.75 1010.28 1007.77 1008.76 1009.89 1011.15 1011.42 1010.92 1010.47 1010.24 1010.26 1010.62 1010.75 1011.09 1011.22 1011.31 1011.38 1011.64 1011.98 1012.46 1012.80 1013.06 1014.60 1014.64 1014.09 1013.20 1012.68 1012.85 1013.38 1013.79 1014.21 1015.46 1016.42 1016.28 1014.94 1015.05 1015.86 1015.32 1015.49 1015.56 1015.29 1015.15 1014.04 1014.08
1012.49 1011.69 1008.24 1007.83 1008.42 1010.22 1011.32 1011.04 1010.81 1010.45 1010.25 1010.62 1011.04 1011.42 1011.99 1012.16 1012.12 1012.12 1012.27 1012.40 1012.46 1013.27 1013.51 1014.73 1015.70 1015.55 1014.71 1014.50 1014.68 1014.62 1015.24 1015.99 1016.75 1017.13 1017.19 1016.85 1016.95 1017.07 1017.09 1016.82 1016.47 1016.30 1015.43 1015.25 1015.80
1012.76 1011.84 1008.02 1007.76 1009.51 1010.89 1011.04 1010.41 1010.43 1010.56 1010.45 1010.75 1011.14 1011.64 1012.16 1012.37 1012.55 1012.54 1012.66 1012.55 1012.73 1012.99 1014.21 1015.00 1016.34 1016.92 1016.31 1015.45 1015.21 1015.73 1016.44 1016.96 1017.83 1018.04 1017.96 1017.69 1017.83 1017.58 1017.79 1017.83 1017.22 1017.01 1016.44 1016.49 1016.09
1013.34 1011.75 1008.49 1008.57 1010.38 1011.38 1010.88 1010.54 1010.34 1010.47 1010.78 1011.03 1011.39 1011.64 1012.04 1012.61 1012.91 1012.74 1012.64 1012.97 1012.76 1013.34 1014.26 1015.15 1016.62 1017.40 1016.98 1016.41 1015.80 1016.36 1016.80 1017.05 1017.55 1018.02 1018.27 1018.57 1018.10 1017.86 1018.04 1018.28 1017.96 1017.51 1017.25 1017.32 1017.27
1013.66 1012.78 1011.29 1010.90 1011.26 1011.28 1011.19 1010.92 1010.68 1010.39 1010.80 1010.97 1011.29 1011.60 1012.12 1012.61 1012.93 1013.15 1013.24 1013.27 1013.18 1013.59 1014.31 1015.00 1016.84 1017.72 1017.93 1017.40 1016.96 1016.73 1017.23 1017.41 1017.90 1018.84 1019.11 1018.72 1018.62 1018.45 1018.86 1018.96 1018.54 1018.08 1018.06 1017.84 1017.84
1013.95 1013.99 1013.43 1012.93 1012.30 1011.75 1011.30 1010.87 1010.68 1010.67 1010.77 1011.08 1011.44 1011.87 1012.40 1012.95 1013.21 1013.36 1013.59 1013.68 1013.70 1014.27 1014.81 1015.69 1017.12 1017.39 1017.30 1016.94 1016.84 1017.08 1017.63 1017.90 1018.33 1018.76 1019.17 1019.06 1018.92 1018.81 1019.01 1019.22 1019.04 1018.66 1018.40 1018.47 1018.38
1015.31 1015.18 1014.20 1013.63 1012.71 1012.08 1011.65 1011.04 1010.71 1010.73 1010.88 1011.31 1011.59 1011.99 1012.36 1013.01 1013.43 1013.71 1013.92 1014.15 1014.34 1014.70 1015.21 1016.05 1017.02 1017.39 1017.49 1016.90 1016.99 1017.40 1017.54 1017.80 1018.21 1018.39 1018.64 1018.75 1018.62 1018.49 1018.83 1018.87 1018.82 1018.81 1018.80 1018.68 1018.67
1016.17 1015.36 1015.07 1014.13 1013.50 1012.85 1011.91 1010.93 1010.56 1010.48 1010.66 1010.76 1011.31 1011.94 1012.41 1012.89 1013.13 1013.32 1013.61 1013.99 1014.25 1014.78 1015.56 1016.27 1017.00 1018.02 1018.09 1017.25 1017.18 1017.73 1017.38 1017.41 1017.67 1017.92 1018.25 1018.54 1018.19 1017.92 1018.46 1018.77 1018.89 1018.80 1018.67 1018.74 1018.79
Wind_Speed
13 13 13 11 11 11 13 13 13 14 14 14 14 15 15 16 16 2 9 16 10 11 1 5 5 2 3 4 4 4 3 5 7 3 4 9 7 2 4 8 4 8 25 10 20
12 12 13 12 12 11 12 12 13 13 13 13 13 14 14 15 3 8 15 9 14 4 5 5 3 3 0 4 3 5 5 9 8 4 10 9 6 10 5 17 8 20 42 18 19
13 13 13 13 12 11 11 12 13 12 12 12 11 13 13 10 5 8 3 14 11 8 3 2 2 3 3 1 5 5 6 8 13 9 9 4 7 7 9 6 13 23 13 6 14
13 13 13 13 12 12 12 12 12 12 10 11 11 13 13 1 4 4 3 5 8 5 3 3 2 4 2 4 7 6 9 7 11 9 7 7 11 9 12 9 20 20 23 17 15
12 13 13 12 12 12 11 12 12 11 10 10 10 11 3 2 12 5 7 7 6 7 6 5 3 4 4 4 3 7 10 11 15 10 8 4 7 11 14 22 25 27 21 19 15
12 12 12 12 12 12 11 11 9 9 9 9 9 11 1 5 6 7 8 4 4 4 4 5 4 4 5 5 1 8 7 9 8 9 6 10 13 10 13 24 30 28 33 31 24
12 12 11 12 12 12 12 11 10 7 8 7 7 4 2 17 2 5 7 6 8 6 5 7 6 2 4 10 7 5 7 10 6 4 5 7 8 13 32 17 19 13 15 18 19
12 11 11 12 12 12 12 13 10 9 7 5 4 0 9 7 5 8 9 9 6 8 5 5 7 6 4 5 9 7 4 6 7 8 8 9 10 6 27 24 21 16 14 17 20
11 10 11 12 12 12 14 14 12 9 5 4 1 1 12 10 4 9 8 7 2 6 7 5 3 1 6 3 7 5 4 7 12 3 5 6 10 12 23 21 21 21 22 22 20
10 10 10 10 10 11 16 12 2 6 4 5 4 4 7 3 5 3 7 5 4 4 5 1 6 3 5 6 5 7 4 5 8 9 0 2 8 18 24 20 24 21 17 16 16
10 10 9 9 8 10 9 4 5 3 1 8 7 6 10 7 4 3 3 4 2 4 2 3 3 7 13 11 10 6 5 8 13 14 2 9 6 11 23 17 14 14 15 10 11
10 9 9 8 8 6 2 1 7 3 9 11 12 10 16 4 5 5 8 4 3 6 3 6 7 16 12 9 7 13 12 14 11 13 7 7 8 2 19 24 25 20 12 15 10
9 9 9 8 6 1 3 8 7 6 3 10 6 6 6 9 5 6 9 4 5 3 6 6 8 10 11 13 15 5 6 9 14 9 2 3 9 8 4 8 14 11 18 19 24
9 9 8 9 4 3 6 6 7 5 4 8 3 4 2 2 2 4 6 8 3 6 5 3 5 15 17 17 12 6 10 16 15 6 5 5 5 14 15 22 22 19 17 11 33
9 8 5 4 4 2 8 4 5 6 3 8 8 3 5 5 3 8 5 10 6 3 8 4 10 13 15 11 11 5 10 11 6 6 5 11 5 8 16 18 22 19 15 17 19
10 7 3 2 2 10 10 10 4 6 2 5 6 9 16 6 7 6 11 9 3 7 7 3 2 8 2 6 7 11 12 6 4 3 5 1 2 6 7 6 11 14 18 21 21
10 8 3 2 6 3 7 5 6 4 6 9 7 8 8 10 10 10 14 14 7 7 7 7 6 9 17 11 8 14 9 7 9 9 4 11 6 3 1 4 5 11 17 21 26
12 7 9 7 3 3 5 6 5 2 3 5 4 4 7 8 8 9 4 6 10 6 4 6 9 11 10 5 6 6 4 5 4 3 6 3 3 5 3 6 5 11 13 19 26
15 2 3 7 8 4 6 5 4 1 2 6 6 5 6 6 5 6 8 7 4 4 5 5 4 5 12 9 5 8 6 6 4 2 2 5 1 4 17 20 21 19 20 19 17
3 4 5 3 11 6 6 4 3 2 2 4 4 5 5 7 7 7 2 4 4 3 5 2 3 3 10 7 8 8 7 7 5 3 5 3 4 7 16 15 15 16 13 14 15
3 4 7 7 4 6 4 3 5 5 5 3 2 5 4 3 3 5 3 1 4 3 7 4 4 8 4 5 4 7 6 5 1 2 2 3 2 4 5 10 11 10 9 9 8
2 2 6 4 5 1 2 4 3 3 6 5 4 4 3 4 3 4 3 3 1 3 4 1 6 2 5 3 10 5 0 3 5 6 3 2 3 6 6 6 7 9 10 5 8
1 4 4 6 4 3 3 2 3 3 2 2 2 2 2 2 2 3 3 4 4 4 5 3 2 4 10 8 4 4 2 2 3 2 3 2 4 6 7 8 8 7 8 5 6
3 4 6 6 0 5 3 0 3 2 2 3 3 1 2 1 2 3 3 3 3 3 6 7 3 6 5 8 4 2 4 5 3 2 4 3 3 6 6 6 8 6 5 6 9
4 3 3 3 4 1 2 2 3 4 3 3 1 3 3 2 3 3 1 4 5 4 3 5 4 3 5 6 1 3 2 4 3 1 2 3 3 3 2 3 4 5 7 7 8
3 4 6 4 4 2 0 3 6 4 4 3 4 1 3 2 5 3 0 2 4 2 3 0 3 2 4 5 5 4 2 2 0 2 2 6 5 5 4 2 6 6 3 3 7
4 4 4 5 5 3 5 7 6 7 3 7 6 5 2 6 6 7 6 6 6 6 4 5 5 4 5 4 0 2 6 5 4 4 4 4 6 4 2 3 1 4 3 4 6
Wind_Direction
308 310 309 313 315 321 317 318 315 316 316 316 319 321 324 321 316 162 247 218 188 226 114 284 241 253 142 224 190 120 99 237 247 233 212 130 197 113 300 64 159 17 306 210 158
305 305 306 311 314 315 310 317 315 313 312 314 320 320 327 330 317 248 252 215 214 159 160 224 307 42 243 241 204 140 153 226 228 226 276 176 167 169 160 96 24 347 304 187 145
309 309 312 310 314 306 309 314 313 308 309 316 323 323 327 329 330 253 239 224 209 166 242 311 154 133 218 114 271 206 204 228 272 254 248 167 152 150 125 111 145 216 1 271 158
308 309 310 308 311 305 307 305 303 302 310 320 329 324 318 276 302 271 94 119 168 168 191 231 212 153 214 210 226 243 262 223 260 245 262 266 121 135 176 155 169 184 191 208 193
301 304 304 303 301 297 296 293 299 303 315 318 330 333 5 345 252 257 135 127 135 151 185 186 198 162 214 225 355 186 248 256 251 255 231 104 148 143 139 139 150 164 175 212 211
299 302 296 301 295 294 291 289 296 305 315 317 337 324 7 287 246 166 151 158 189 182 187 170 222 183 272 263 185 255 258 258 275 246 214 130 133 110 169 159 167 172 179 190 192
296 290 295 294 294 293 289 290 287 298 310 323 332 315 277 241 275 114 159 219 178 185 185 201 207 121 280 293 256 254 330 327 289 247 252 126 148 159 174 188 195 212 188 195 191
292 294 297 295 294 293 296 290 286 297 308 303 294 304 252 257 222 239 217 265 220 211 214 228 182 202 189 272 347 354 41 6 309 317 266 109 266 188 172 181 196 213 215 206 188
296 296 288 293 301 302 292 283 290 289 258 256 184 138 269 302 256 241 185 215 266 210 231 248 97 221 0 57 358 350 259 300 314 254 259 148 262 174 175 186 192 196 199 198 193
295 292 295 300 302 304 301 299 292 330 168 183 258 323 273 267 231 225 194 208 222 243 347 343 46 23 7 62 235 245 259 260 262 286 95 297 251 161 190 195 187 191 193 194 191
298 295 300 300 317 344 353 21 15 22 255 205 198 241 289 277 157 218 178 154 274 23 241 295 72 244 242 208 228 241 270 261 270 274 308 261 261 205 193 192 205 194 200 186 162
302 301 307 323 334 11 334 171 218 224 308 221 240 238 257 261 289 271 120 147 146 252 36 10 252 256 245 260 252 267 255 270 285 264 170 285 308 359 170 207 206 197 188 187 121
314 318 323 320 327 309 210 235 244 35 334 295 219 216 230 145 216 243 145 180 198 246 247 176 283 349 56 39 2 2 43 298 266 284 110 19 331 336 129 333 224 237 190 159 145
330 331 334 326 333 315 257 263 261 156 48 279 249 255 108 116 310 204 205 168 189 219 291 105 323 47 31 21 6 19 338 335 326 337 273 74 259 51 22 37 28 6 353 263 181
330 320 316 58 285 269 239 351 316 59 31 329 339 104 339 138 264 349 9 45 14 38 69 304 32 41 42 359 2 309 333 319 312 300 66 15 50 354 27 8 356 356 343 326 301
315 302 321 145 227 246 329 315 55 46 293 12 348 341 7 350 21 50 48 41 42 51 38 48 309 47 302 3 21 325 349 18 1 35 70 313 224 345 23 353 335 341 339 333 316
299 282 217 302 241 5 346 36 47 86 332 347 337 355 356 44 11 49 53 39 41 29 2 348 23 352 7 353 6 3 30 358 353 8 268 357 20 203 224 9 338 333 338 349 337
303 265 225 224 234 36 28 46 69 64 358 329 322 1 60 21 30 33 83 77 24 51 65 40 346 4 356 356 311 342 49 139 239 244 277 320 209 148 25 28 323 14 15 3 8
313 165 257 253 187 136 77 52 183 67 335 331 329 52 22 356 56 60 85 70 64 58 85 36 297 356 2 333 15 312 7 203 140 334 328 268 270 105 10 14 2 7 11 13 20
8 348 260 101 143 81 75 219 104 86 7 30 59 27 42 6 29 29 56 335 109 86 109 332 344 348 313 360 14 76 321 15 5 164 252 301 72 18 357 350 358 6 354 12 28
39 15 262 82 88 59 155 182 108 60 74 79 68 30 83 17 355 359 37 119 65 70 96 115 96 301 358 22 7 360 15 8 156 72 322 315 7 324 312 320 336 346 8 20 55
39 360 270 53 54 51 127 142 151 112 43 29 95 81 100 12 317 37 62 80 215 169 73 46 129 283 266 262 112 109 167 112 120 288 259 200 243 314 303 353 360 355 343 85 72
60 252 325 84 97 334 260 97 101 125 145 100 87 107 135 74 357 14 23 357 73 86 150 188 39 16 342 349 6 91 333 161 240 21 170 149 262 356 353 12 357 5 360 68 73
68 353 331 37 246 123 45 122 144 98 131 129 186 331 107 92 140 288 18 11 55 119 123 91 114 149 197 232 249 288 31 2 78 87 301 303 324 315 10 6 341 20 41 60 80
32 285 205 308 324 112 140 246 129 177 142 161 35 112 149 206 298 274 328 9 26 100 87 105 163 217 247 267 220 119 74 50 73 210 206 313 223 294 87 31 329 324 141 127 115
59 34 345 281 306 321 29 237 177 141 144 176 153 127 67 154 186 229 218 198 202 284 100 346 222 233 286 286 184 147 180 119 129 174 247 315 246 223 147 180 17 7 98 119 142
315 327 105 281 334 26 243 214 188 141 238 179 169 143 214 195 197 215 206 198 201 185 195 171 152 105 254 271 314 337 210 185 207 230 180 232 243 249 184 154 211 311 314 203 169